DW9064 Weather Reports


Display with metric or nautical units.
time (UTC)temp
F
wind
direction
speed
MPH
gust
MPH
rain 1hr
in
rain 24hr
in
rain mn
in
humidity
%
barometer
mb
20260831072015 56 358 4.0 6.0 0.00 0.00 0.00 68 1016.6
20260831071115 57 354 3.0 9.0 0.00 0.00 0.00 67 1016.5
20260831070215 57 350 4.0 8.0 0.00 0.00 0.00 71 1016.5
20260831064415 57 336 5.0 7.0 0.00 0.00 0.00 70 1016.6
20260831063515 57 318 4.0 7.0 0.00 0.00 0.00 68 1016.5
20260831062615 58 331 4.0 6.0 0.00 0.00 0.00 67 1016.4
20260831061715 59 330 4.0 6.0 0.00 0.00 0.00 66 1016.4
20260831060815 59 336 4.0 6.0 0.00 0.00 0.00 64 1016.4
20260831055915 60 347 4.0 6.0 0.00 0.00 0.00 61 1016.4
20260831053215 61 12 2.0 7.0 0.00 0.00 0.00 59 1016.2
20260831052315 62 7 3.0 7.0 0.00 0.00 0.00 59 1016.2
20260831050515 62 5 3.0 5.0 0.00 0.00 0.00 58 1016.1
20260831045615 62 3 2.0 5.0 0.00 0.00 0.00 58 1016.1
20260831044715 62 357 2.0 5.0 0.00 0.00 0.00 58 1016.2
20260831043815 62 348 3.0 5.0 0.00 0.00 0.00 58 1015.9
20260831042915 62 338 4.0 5.0 0.00 0.00 0.00 58 1016.0
20260831042015 62 344 3.0 6.0 0.00 0.00 0.00 57 1016.1
20260831041115 62 345 3.0 6.0 0.00 0.00 0.00 56 1015.9
20260831035315 63 358 4.0 5.0 0.00 0.00 0.00 56 1016.1
20260831034415 63 342 3.0 5.0 0.00 0.00 0.00 56 1015.8
20260831033515 63 350 3.0 4.0 0.00 0.00 0.00 55 1015.9
20260831032615 64 359 2.0 5.0 0.00 0.00 0.00 53 1015.7
20260831030815 65 2 2.0 4.0 0.00 0.00 0.00 49 1015.6
20260831025915 65 359 3.0 4.0 0.00 0.00 0.00 48 1015.5
20260831025015 65 16 2.0 4.0 0.00 0.00 0.00 46 1015.4
20260831024115 66 25 0.0 4.0 0.00 0.00 0.00 45 1015.4
20260831023215 67 1 2.0 6.0 0.00 0.00 0.00 44 1015.3
20260831022315 67 12 2.0 6.0 0.00 0.00 0.00 42 1015.2
20260831021415 68 17 4.0 7.0 0.00 0.00 0.00 41 1015.2
20260831020515 68 28 2.0 8.0 0.00 0.00 0.00 40 1015.1
20260831015614 68 26 2.0 12.0 0.00 0.00 0.00 40 1015.1
20260831014715 68 24 4.0 12.0 0.00 0.00 0.00 41 1015.0
20260831013815 68 330 3.0 4.0 0.00 0.00 0.00 43 1015.0
20260831012915 70 332 2.0 4.0 0.00 0.00 0.00 38 1014.9
20260831011114 71 175 2.0 6.0 0.00 0.00 0.00 28 1015.0
20260831010214 71 172 2.0 6.0 0.00 0.00 0.00 28 1014.9
20260831005314 72 190 4.0 6.0 0.00 0.00 0.00 28 1015.0
20260831004415 72 187 4.0 8.0 0.00 0.00 0.00 27 1014.9
20260831003514 72 189 3.0 10.0 0.00 0.00 0.00 28 1014.9
20260831001715 72 170 2.0 7.0 0.00 0.00 0.00 28 1014.9
20260831000814 72 175 2.0 8.0 0.00 0.00 0.00 28 1014.9
20260830235014 71 189 4.0 10.0 0.00 0.00 0.00 28 1014.8
20260830234115 71 187 2.0 10.0 0.00 0.00 0.00 29 1015.0
20260830233215 71 173 3.0 10.0 0.00 0.00 0.00 29 1015.0
20260830232314 71 179 5.0 12.0 0.00 0.00 0.00 28 1015.0
20260830231414 72 186 7.0 12.0 0.00 0.00 0.00 28 1015.1
20260830225614 71 193 6.0 13.0 0.00 0.00 0.00 29 1015.2
20260830224714 71 217 4.0 15.0 0.00 0.00 0.00 29 1015.2
20260830223814 71 196 7.0 15.0 0.00 0.00 0.00 28 1015.2
20260830222914 72 200 8.0 14.0 0.00 0.00 0.00 28 1015.2
20260830222014 72 172 8.0 16.0 0.00 0.00 0.00 28 1015.2
20260830221114 72 113 4.0 8.0 0.00 0.00 0.00 28 1015.3
20260830220214 72 139 5.0 8.0 0.00 0.00 0.00 28 1015.2
20260830214414 71 169 4.0 7.0 0.00 0.00 0.00 30 1015.5
20260830212614 71 166 4.0 13.0 0.00 0.00 0.00 31 1015.6
20260830211714 71 171 4.0 13.0 0.00 0.00 0.00 30 1015.5
20260830205914 71 176 4.0 14.0 0.00 0.00 0.00 31 1015.5
20260830205014 71 194 4.0 14.0 0.00 0.00 0.00 31 1015.5
20260830204114 72 167 8.0 15.0 0.00 0.00 0.00 29 1015.4
20260830203214 73 189 11.0 17.0 0.00 0.00 0.00 29 1015.5
20260830202314 72 194 10.0 19.0 0.00 0.00 0.00 29 1015.6
20260830200514 72 185 7.0 22.0 0.00 0.00 0.00 30 1015.7
20260830195614 71 189 6.0 17.0 0.00 0.00 0.00 32 1015.4
20260830194714 72 178 11.0 16.0 0.00 0.00 0.00 31 1015.5
20260830193814 72 172 7.0 15.0 0.00 0.00 0.00 31 1015.4
20260830192914 71 174 7.0 17.0 0.00 0.00 0.00 32 1015.4
20260830192014 70 178 6.0 17.0 0.00 0.00 0.00 34 1015.4
20260830191114 68 175 9.0 18.0 0.00 0.00 0.00 37 1015.6
20260830190214 68 199 8.0 15.0 0.00 0.00 0.00 37 1015.7
20260830185314 67 187 7.0 17.0 0.00 0.00 0.00 39 1015.8
20260830183514 68 190 8.0 17.0 0.00 0.00 0.00 40 1015.8
20260830181714 68 169 8.0 15.0 0.00 0.00 0.00 39 1015.9
20260830180814 68 181 9.0 16.0 0.00 0.00 0.00 41 1016.1
20260830175914 68 202 6.0 15.0 0.00 0.00 0.00 41 1016.2
20260830174114 66 201 8.0 15.0 0.00 0.00 0.00 47 1016.2
20260830173214 63 173 7.0 15.0 0.00 0.00 0.00 50 1016.1
20260830172313 63 203 8.0 15.0 0.00 0.00 0.00 50 1016.2
20260830171414 63 201 4.0 16.0 0.00 0.00 0.00 50 1016.2
20260830170514 64 207 11.0 16.0 0.00 0.00 0.00 47 1016.1
20260830165614 64 212 8.0 15.0 0.00 0.00 0.00 50 1016.2
20260830163813 63 191 9.0 17.0 0.00 0.00 0.00 51 1016.2
20260830161113 61 187 6.0 15.0 0.00 0.00 0.00 59 1016.2
20260830160213 60 173 5.0 13.0 0.00 0.00 0.00 61 1016.2
20260830155314 60 176 8.0 14.0 0.00 0.00 0.00 63 1016.3
20260830154413 59 184 5.0 13.0 0.00 0.00 0.00 65 1016.2
20260830153513 59 201 9.0 13.0 0.00 0.00 0.00 66 1016.3
20260830151713 58 193 5.0 14.0 0.00 0.00 0.00 67 1016.2
20260830150813 58 182 6.0 11.0 0.00 0.00 0.00 69 1016.1
20260830145913 56 175 8.0 11.0 0.00 0.00 0.00 73 1015.9
20260830145013 55 203 2.0 7.0 0.00 0.00 0.00 76 1015.9
20260830143213 54 181 3.0 6.0 0.00 0.00 0.00 81 1016.0
20260830140513 49 318 3.0 4.0 0.00 0.00 0.00 89 1015.9
20260830135613 49 317 3.0 4.0 0.00 0.00 0.00 89 1015.7
20260830134713 49 331 2.0 5.0 0.00 0.00 0.00 89 1015.7
20260830133813 49 318 4.0 5.0 0.00 0.00 0.00 88 1015.6
20260830132913 49 334 4.0 6.0 0.00 0.00 0.00 88 1015.6
20260830132013 49 326 4.0 5.0 0.00 0.00 0.00 88 1015.5
20260830130213 49 316 3.0 4.0 0.00 0.00 0.00 88 1015.4
20260830125313 49 314 4.0 4.0 0.00 0.00 0.00 88 1015.4
20260830124413 50 314 3.0 4.0 0.00 0.00 0.00 87 1015.4
20260830123513 50 314 3.0 4.0 0.00 0.00 0.00 87 1015.3
20260830122613 50 314 4.0 4.0 0.00 0.00 0.00 87 1015.4
20260830121713 50 314 2.0 4.0 0.00 0.00 0.00 87 1015.3
20260830120813 50 314 2.0 4.0 0.00 0.00 0.00 86 1015.3
20260830114113 50 315 3.0 4.0 0.00 0.00 0.00 85 1015.2
20260830113213 50 343 2.0 3.0 0.00 0.00 0.00 85 1015.2
20260830112313 50 40 1.0 2.0 0.00 0.00 0.00 85 1015.2
20260830111413 50 340 1.0 4.0 0.00 0.00 0.00 85 1015.2
20260830110513 50 314 3.0 4.0 0.00 0.00 0.00 85 1015.4
20260830105613 50 314 3.0 4.0 0.00 0.00 0.00 85 1015.4
20260830104713 50 317 4.0 5.0 0.00 0.00 0.00 85 1015.5
20260830103813 50 328 4.0 4.0 0.00 0.00 0.00 84 1015.4
20260830102913 50 348 2.0 4.0 0.00 0.00 0.00 84 1015.5
20260830102013 50 321 3.0 4.0 0.00 0.00 0.00 83 1015.4
20260830101113 50 331 2.0 4.0 0.00 0.00 0.00 83 1015.5
20260830100213 50 334 3.0 4.0 0.00 0.00 0.00 83 1015.4
20260830095313 50 315 3.0 4.0 0.00 0.00 0.00 82 1015.2
20260830094413 50 345 2.0 4.0 0.00 0.00 0.00 82 1015.3
20260830093513 50 330 3.0 5.0 0.00 0.00 0.00 82 1015.2
20260830092613 50 314 3.0 5.0 0.00 0.00 0.00 82 1015.2
20260830091713 50 321 4.0 4.0 0.00 0.00 0.00 82 1015.3
20260830085912 49 314 4.0 4.0 0.00 0.00 0.00 81 1015.2
20260830085013 49 314 3.0 5.0 0.00 0.00 0.00 81 1015.1
20260830084113 49 314 4.0 5.0 0.00 0.00 0.00 81 1015.2
20260830083212 49 317 3.0 5.0 0.00 0.00 0.00 81 1015.3
20260830082312 49 320 4.0 5.0 0.00 0.00 0.00 81 1015.1
20260830080513 48 319 4.0 6.0 0.00 0.00 0.00 81 1015.0
20260830075612 48 314 4.0 6.0 0.00 0.00 0.00 81 1015.0
20260830074713 48 314 5.0 7.0 0.00 0.00 0.00 81 1014.9
20260830072912 49 326 4.0 6.0 0.00 0.00 0.00 80 1014.9